COSMOS 2429

Satellite information

Favourite Embed

Satellite Type and Status

PAYLOADIN ORBIT

Key statistics

Satellite COSMOS 2429 at a glance.

Uptime

6623

Days in orbit

Revolutions

≈ 13.8

Per day

Orbit

LEO

Low Earth Orbit

Inclination

83.0

Latest

Satellite identification and parameters

Extended collection of information and parameters for COSMOS 2429.

Object identification

Identified? True

Debris? False

Object name: COSMOS 2429

International designator: 2007-038A

Object number (NORAD): 32052

Object ID (CCSDS): 32052

Country: COMMONWEALTH OF INDEPENDENT STATES (CIS)

Current information (Y/N): Y

RCS size: LARGE

Orbital parameters

Period: 104.716 minutes

Inclination: 82.9846 deg

SMA: 7359.303 km

Apoapsis: 1009.777 km

Periapsis: 952.559 km

RAAN: 17.3758 deg

Eccentricy: 0.00388748

Argument of periapsis: 163.3647 deg

Mean anomaly: 196.8795 deg

Mean motion: 13.75142663 rev/day

Mean motion (dot): 0.00000083 rev/day2

B* drag term: 0.000070694014 1/REarth

Two-line elements (TLE)

Creation date: Oct. 28, 2025, 2:18 a.m.

Reference frame: TEME

Reference center: EARTH

Epoch: Oct. 27, 2025, 12:25 p.m. UTC

TLE line 0: 0 COSMOS 2429

TLE line 1: 1 32052U 07038A 25300.51740418 .00000083 00000-0 70694-4 0 9991

TLE line 2: 2 32052 82.9846 17.3758 0038875 163.3647 196.8795 13.75142663909677

Live tracking on map

Real-time ground track for satellite COSMOS 2429.

In-orbit conjunctions

There are no conjunctions computed for COSMOS 2429, at the moment. Check back to stay up to date, as we update our databases every day.

Go to all conjunctions

Associated space launch

Navigation satellite providing location information for the Tsiklon-B navigation system

COSMOS 2429 was lifted into orbit during the mission ‘Kosmos-3M | Parus 97’, on board a Kosmos-3M space rocket.

The launch took place on Sept. 11, 2007, 1:05 p.m. from 132/1 (132L).

For more information about the launch, click the button.

Launch to space Kosmos-3M | Parus 97
Kosmos-3M | Parus 97

Agency: N/A

Status: Launch Successful

Launch date: Sept. 11, 2007, 1:05 p.m. UTC

Rocket: Kosmos-3M

Launch pad: 132/1 (132L)

Location: Plesetsk Cosmodrome, Russian Federation

...

Latest news about this satellite

There are no fresh news available about this satellite. Check back as we update our databases every day.


Newsletter sign-up

Weekly statistics, charts and insights to help you stay on top of the space industry.